| time (UTC) | temp C | wind direction | speed KPH | gust KPH | rain 1hr cm | rain 24hr cm | rain mn cm | humidity % | barometer mb |
| 20260510090903 | 15 | 9 | 16.1 | 27.4 | 0.00 | 0.00 | 0.00 | 56 | 1015.0 |
| 20260510090003 | 15 | 11 | 11.3 | 22.5 | 0.00 | 0.00 | 0.00 | 59 | 1015.0 |
| 20260510085403 | 15 | 12 | 12.9 | 24.1 | 0.00 | 0.00 | 0.00 | 60 | 1015.0 |
| 20260510084503 | 15 | 10 | 11.3 | 25.7 | 0.00 | 0.00 | 0.00 | 62 | 1015.0 |
| 20260510083603 | 15 | 11 | 14.5 | 24.1 | 0.00 | 0.00 | 0.00 | 61 | 1015.0 |
| 20260510082703 | 15 | 17 | 12.9 | 24.1 | 0.00 | 0.00 | 0.00 | 61 | 1015.0 |
| 20260510081803 | 15 | 6 | 12.9 | 27.4 | 0.00 | 0.00 | 0.00 | 62 | 1015.1 |
| 20260510081118 | 15 | 6 | 14.5 | 27.4 | 0.00 | 0.00 | 0.00 | 62 | 1015.2 |
| 20260510080003 | 15 | 10 | 12.9 | 24.1 | 0.00 | 0.00 | 0.00 | 62 | 1015.4 |
| 20260510075617 | 15 | 16 | 11.3 | 24.1 | 0.00 | 0.00 | 0.00 | 63 | 1015.4 |
| 20260510074503 | 14 | 7 | 11.3 | 22.5 | 0.00 | 0.00 | 0.00 | 64 | 1015.5 |
| 20260510073603 | 14 | 18 | 14.5 | 24.1 | 0.00 | 0.00 | 0.00 | 64 | 1015.5 |
| 20260510072703 | 14 | 14 | 12.9 | 24.1 | 0.00 | 0.00 | 0.00 | 65 | 1015.5 |
| 20260510071803 | 14 | 3 | 12.9 | 27.4 | 0.00 | 0.00 | 0.00 | 66 | 1015.5 |
| 20260510070903 | 13 | 13 | 11.3 | 25.7 | 0.00 | 0.00 | 0.00 | 68 | 1015.5 |
| 20260510070003 | 13 | 15 | 12.9 | 24.1 | 0.00 | 0.00 | 0.00 | 69 | 1015.4 |
| 20260510065403 | 13 | 12 | 12.9 | 24.1 | 0.00 | 0.00 | 0.00 | 68 | 1015.5 |
| 20260510064503 | 13 | 14 | 11.3 | 22.5 | 0.00 | 0.00 | 0.00 | 69 | 1015.6 |
| 20260510063603 | 13 | 11 | 12.9 | 24.1 | 0.00 | 0.00 | 0.00 | 69 | 1015.5 |
| 20260510062703 | 13 | 7 | 11.3 | 24.1 | 0.00 | 0.00 | 0.00 | 69 | 1015.5 |
| 20260510061803 | 13 | 6 | 12.9 | 24.1 | 0.00 | 0.00 | 0.00 | 70 | 1015.6 |
| 20260510060903 | 13 | 13 | 11.3 | 20.9 | 0.00 | 0.00 | 0.00 | 72 | 1015.6 |
| 20260510060003 | 12 | 12 | 14.5 | 24.1 | 0.00 | 0.00 | 0.00 | 72 | 1015.6 |
| 20260510055403 | 12 | 12 | 11.3 | 24.1 | 0.00 | 0.00 | 0.00 | 73 | 1015.6 |
| 20260510054503 | 12 | 8 | 11.3 | 20.9 | 0.00 | 0.00 | 0.00 | 75 | 1015.6 |
| 20260510053603 | 12 | 8 | 11.3 | 22.5 | 0.00 | 0.00 | 0.00 | 77 | 1015.6 |
| 20260510052703 | 11 | 4 | 9.7 | 24.1 | 0.00 | 0.00 | 0.00 | 78 | 1015.5 |
| 20260510051803 | 11 | 7 | 9.7 | 24.1 | 0.00 | 0.00 | 0.00 | 79 | 1015.5 |
| 20260510050903 | 11 | 3 | 12.9 | 22.5 | 0.00 | 0.00 | 0.00 | 79 | 1015.5 |
| 20260510050003 | 11 | 5 | 12.9 | 24.1 | 0.00 | 0.00 | 0.00 | 80 | 1015.3 |
| 20260510045403 | 11 | 6 | 11.3 | 22.5 | 0.00 | 0.00 | 0.00 | 80 | 1015.4 |
| 20260510044717 | 11 | 8 | 11.3 | 19.3 | 0.00 | 0.00 | 0.00 | 80 | 1015.3 |
| 20260510043603 | 11 | 4 | 9.7 | 20.9 | 0.00 | 0.00 | 0.00 | 81 | 1015.3 |
| 20260510042703 | 11 | 1 | 9.7 | 16.1 | 0.00 | 0.00 | 0.00 | 80 | 1015.3 |
| 20260510041803 | 11 | 5 | 8.0 | 17.7 | 0.00 | 0.00 | 0.00 | 80 | 1015.5 |
| 20260510040903 | 11 | 6 | 8.0 | 16.1 | 0.00 | 0.00 | 0.00 | 80 | 1015.5 |
| 20260510040003 | 11 | 5 | 6.4 | 17.7 | 0.00 | 0.00 | 0.00 | 80 | 1015.4 |
| 20260510035403 | 11 | 1 | 6.4 | 12.9 | 0.00 | 0.00 | 0.00 | 79 | 1015.5 |
| 20260510034503 | 11 | 1 | 8.0 | 17.7 | 0.00 | 0.00 | 0.00 | 79 | 1015.5 |
| 20260510033603 | 11 | 6 | 8.0 | 16.1 | 0.00 | 0.00 | 0.00 | 79 | 1015.4 |
| 20260510032703 | 11 | 6 | 6.4 | 14.5 | 0.00 | 0.00 | 0.00 | 79 | 1015.5 |
| 20260510031803 | 11 | 4 | 8.0 | 14.5 | 0.00 | 0.00 | 0.00 | 80 | 1015.5 |
| 20260510030903 | 11 | 5 | 6.4 | 14.5 | 0.00 | 0.00 | 0.00 | 80 | 1015.6 |
| 20260510030003 | 11 | 6 | 4.8 | 17.7 | 0.00 | 0.00 | 0.00 | 80 | 1015.6 |
| 20260510025403 | 11 | 5 | 4.8 | 12.9 | 0.00 | 0.00 | 0.00 | 81 | 1015.6 |
| 20260510024503 | 11 | 7 | 6.4 | 14.5 | 0.00 | 0.00 | 0.00 | 81 | 1015.5 |
| 20260510023603 | 12 | 4 | 6.4 | 14.5 | 0.00 | 0.00 | 0.00 | 81 | 1015.6 |
| 20260510022703 | 12 | 9 | 6.4 | 14.5 | 0.00 | 0.00 | 0.00 | 81 | 1015.6 |
| 20260510021803 | 12 | 5 | 6.4 | 14.5 | 0.00 | 0.00 | 0.00 | 81 | 1015.6 |
| 20260510021118 | 12 | 4 | 6.4 | 11.3 | 0.00 | 0.00 | 0.00 | 81 | 1015.8 |
| 20260510020003 | 12 | 7 | 8.0 | 14.5 | 0.00 | 0.00 | 0.00 | 81 | 1015.7 |
| 20260510015403 | 12 | 7 | 6.4 | 16.1 | 0.00 | 0.00 | 0.00 | 80 | 1015.7 |
| 20260510014503 | 12 | 12 | 8.0 | 17.7 | 0.00 | 0.00 | 0.00 | 80 | 1015.8 |
| 20260510013603 | 12 | 9 | 6.4 | 16.1 | 0.00 | 0.00 | 0.00 | 80 | 1015.8 |
| 20260510012703 | 12 | 11 | 6.4 | 14.5 | 0.00 | 0.00 | 0.00 | 79 | 1015.9 |
| 20260510011803 | 12 | 9 | 6.4 | 11.3 | 0.00 | 0.00 | 0.00 | 79 | 1016.0 |
| 20260510010903 | 12 | 8 | 4.8 | 11.3 | 0.00 | 0.00 | 0.00 | 79 | 1016.0 |
| 20260510010003 | 12 | 12 | 6.4 | 12.9 | 0.00 | 0.00 | 0.00 | 78 | 1015.9 |
| 20260510005616 | 12 | 13 | 6.4 | 12.9 | 0.00 | 0.00 | 0.00 | 78 | 1015.9 |
| 20260510004718 | 12 | 7 | 6.4 | 12.9 | 0.00 | 0.00 | 0.00 | 78 | 1015.9 |
| 20260510003603 | 12 | 2 | 6.4 | 11.3 | 0.00 | 0.00 | 0.00 | 78 | 1015.8 |
| 20260510002916 | 12 | 2 | 4.8 | 11.3 | 0.00 | 0.00 | 0.00 | 78 | 1016.0 |
| 20260510002018 | 12 | 357 | 4.8 | 11.3 | 0.00 | 0.00 | 0.00 | 77 | 1016.1 |
| 20260510000903 | 12 | 4 | 4.8 | 12.9 | 0.00 | 0.00 | 0.00 | 77 | 1016.2 |
| 20260510000003 | 12 | 6 | 6.4 | 11.3 | 0.00 | 0.00 | 0.00 | 77 | 1016.3 |
| 20260509235403 | 12 | 1 | 6.4 | 11.3 | 0.00 | 0.00 | 0.00 | 77 | 1016.4 |
| 20260509234717 | 12 | 7 | 4.8 | 9.7 | 0.00 | 0.00 | 0.00 | 77 | 1016.4 |
| 20260509233603 | 13 | 6 | 4.8 | 9.7 | 0.00 | 0.00 | 0.00 | 76 | 1016.5 |
| 20260509232703 | 13 | 6 | 4.8 | 9.7 | 0.00 | 0.00 | 0.00 | 75 | 1016.4 |
| 20260509232017 | 13 | 12 | 4.8 | 8.0 | 0.00 | 0.00 | 0.00 | 75 | 1016.5 |
| 20260509230903 | 13 | 6 | 4.8 | 9.7 | 0.00 | 0.00 | 0.00 | 74 | 1016.5 |
| 20260509230003 | 13 | 11 | 4.8 | 9.7 | 0.00 | 0.00 | 0.00 | 74 | 1016.5 |
| 20260509225403 | 13 | 10 | 6.4 | 14.5 | 0.00 | 0.00 | 0.00 | 74 | 1016.3 |
| 20260509224503 | 13 | 5 | 6.4 | 12.9 | 0.00 | 0.00 | 0.00 | 74 | 1016.3 |
| 20260509223603 | 13 | 1 | 4.8 | 9.7 | 0.00 | 0.00 | 0.00 | 74 | 1016.4 |
| 20260509222918 | 13 | 353 | 4.8 | 9.7 | 0.00 | 0.00 | 0.00 | 73 | 1016.4 |
| 20260509221803 | 13 | 359 | 4.8 | 9.7 | 0.00 | 0.00 | 0.00 | 72 | 1016.5 |
| 20260509220903 | 13 | 356 | 4.8 | 8.0 | 0.00 | 0.00 | 0.00 | 71 | 1016.5 |
| 20260509220003 | 13 | 3 | 6.4 | 12.9 | 0.00 | 0.00 | 0.00 | 70 | 1016.4 |
| 20260509215403 | 13 | 2 | 6.4 | 12.9 | 0.00 | 0.00 | 0.00 | 70 | 1016.3 |
| 20260509214503 | 13 | 7 | 6.4 | 12.9 | 0.00 | 0.00 | 0.00 | 70 | 1016.4 |
| 20260509213603 | 13 | 3 | 6.4 | 11.3 | 0.00 | 0.00 | 0.00 | 69 | 1016.4 |
| 20260509212703 | 13 | 1 | 4.8 | 9.7 | 0.00 | 0.00 | 0.00 | 68 | 1016.4 |
| 20260509211803 | 13 | 357 | 4.8 | 11.3 | 0.00 | 0.00 | 0.00 | 66 | 1016.4 |
| 20260509210903 | 13 | 356 | 6.4 | 11.3 | 0.00 | 0.00 | 0.00 | 65 | 1016.3 |
| 20260509210003 | 14 | 358 | 4.8 | 9.7 | 0.00 | 0.00 | 0.00 | 65 | 1016.3 |
| 20260509205403 | 14 | 359 | 4.8 | 11.3 | 0.00 | 0.00 | 0.00 | 63 | 1016.3 |
| 20260509204503 | 14 | 356 | 4.8 | 12.9 | 0.00 | 0.00 | 0.00 | 63 | 1016.3 |
| 20260509203603 | 14 | 358 | 4.8 | 12.9 | 0.00 | 0.00 | 0.00 | 63 | 1016.2 |
| 20260509202703 | 14 | 4 | 6.4 | 11.3 | 0.00 | 0.00 | 0.00 | 62 | 1016.2 |
| 20260509201803 | 14 | 1 | 4.8 | 11.3 | 0.00 | 0.00 | 0.00 | 61 | 1016.2 |
| 20260509200903 | 15 | 354 | 4.8 | 9.7 | 0.00 | 0.00 | 0.00 | 60 | 1016.2 |
| 20260509200003 | 15 | 346 | 4.8 | 11.3 | 0.00 | 0.00 | 0.00 | 60 | 1016.2 |
| 20260509195616 | 15 | 345 | 4.8 | 11.3 | 0.00 | 0.00 | 0.00 | 60 | 1016.2 |
| 20260509194718 | 15 | 341 | 4.8 | 9.7 | 0.00 | 0.00 | 0.00 | 61 | 1016.1 |
| 20260509193603 | 15 | 347 | 4.8 | 11.3 | 0.00 | 0.00 | 0.00 | 60 | 1016.0 |
| 20260509192703 | 15 | 334 | 4.8 | 9.7 | 0.00 | 0.00 | 0.00 | 59 | 1016.1 |
| 20260509191803 | 16 | 335 | 4.8 | 9.7 | 0.00 | 0.00 | 0.00 | 59 | 1016.1 |
| 20260509190903 | 16 | 343 | 4.8 | 11.3 | 0.00 | 0.00 | 0.00 | 58 | 1016.1 |
| 20260509190003 | 16 | 337 | 6.4 | 14.5 | 0.00 | 0.00 | 0.00 | 58 | 1016.0 |
| 20260509185403 | 16 | 335 | 6.4 | 14.5 | 0.00 | 0.00 | 0.00 | 58 | 1015.9 |
| 20260509184503 | 16 | 334 | 6.4 | 12.9 | 0.00 | 0.00 | 0.00 | 58 | 1016.1 |
| 20260509183603 | 16 | 332 | 4.8 | 12.9 | 0.00 | 0.00 | 0.00 | 58 | 1016.0 |
| 20260509182703 | 17 | 332 | 6.4 | 14.5 | 0.00 | 0.00 | 0.00 | 58 | 1015.9 |
| 20260509181803 | 17 | 341 | 6.4 | 14.5 | 0.00 | 0.00 | 0.00 | 57 | 1015.9 |
| 20260509180903 | 17 | 334 | 6.4 | 14.5 | 0.00 | 0.00 | 0.00 | 57 | 1015.7 |
| 20260509180003 | 17 | 331 | 6.4 | 16.1 | 0.00 | 0.00 | 0.00 | 57 | 1015.7 |
| 20260509175403 | 17 | 335 | 8.0 | 19.3 | 0.00 | 0.00 | 0.00 | 57 | 1015.7 |
| 20260509174503 | 17 | 334 | 8.0 | 19.3 | 0.00 | 0.00 | 0.00 | 56 | 1015.6 |
| 20260509173603 | 18 | 341 | 8.0 | 19.3 | 0.00 | 0.00 | 0.00 | 56 | 1015.6 |
| 20260509172918 | 18 | 342 | 8.0 | 19.3 | 0.00 | 0.00 | 0.00 | 55 | 1015.6 |
| 20260509171803 | 18 | 336 | 6.4 | 17.7 | 0.00 | 0.00 | 0.00 | 54 | 1015.6 |
| 20260509170903 | 18 | 333 | 6.4 | 16.1 | 0.00 | 0.00 | 0.00 | 52 | 1015.6 |
| 20260509170003 | 18 | 331 | 8.0 | 16.1 | 0.00 | 0.00 | 0.00 | 51 | 1015.7 |
| 20260509165403 | 19 | 327 | 8.0 | 16.1 | 0.00 | 0.00 | 0.00 | 49 | 1015.7 |
| 20260509164503 | 19 | 345 | 8.0 | 19.3 | 0.00 | 0.00 | 0.00 | 48 | 1015.8 |
| 20260509163603 | 19 | 333 | 4.8 | 16.1 | 0.00 | 0.00 | 0.00 | 47 | 1015.8 |
| 20260509162703 | 19 | 346 | 6.4 | 14.5 | 0.00 | 0.00 | 0.00 | 48 | 1015.8 |
| 20260509161803 | 19 | 339 | 6.4 | 16.1 | 0.00 | 0.00 | 0.00 | 46 | 1015.8 |
| 20260509160903 | 19 | 342 | 6.4 | 16.1 | 0.00 | 0.00 | 0.00 | 46 | 1015.8 |
| 20260509160003 | 19 | 357 | 9.7 | 16.1 | 0.00 | 0.00 | 0.00 | 45 | 1015.8 |
| 20260509155403 | 20 | 349 | 6.4 | 14.5 | 0.00 | 0.00 | 0.00 | 45 | 1015.8 |
| 20260509154503 | 20 | 343 | 6.4 | 12.9 | 0.00 | 0.00 | 0.00 | 46 | 1015.7 |
| 20260509153603 | 20 | 341 | 6.4 | 11.3 | 0.00 | 0.00 | 0.00 | 47 | 1015.7 |
| 20260509152703 | 20 | 350 | 4.8 | 11.3 | 0.00 | 0.00 | 0.00 | 46 | 1015.7 |
| 20260509151803 | 20 | 350 | 4.8 | 12.9 | 0.00 | 0.00 | 0.00 | 47 | 1015.8 |
| 20260509150903 | 20 | 354 | 4.8 | 11.3 | 0.00 | 0.00 | 0.00 | 45 | 1015.9 |
| 20260509150003 | 20 | 342 | 4.8 | 11.3 | 0.00 | 0.00 | 0.00 | 47 | 1015.8 |
| 20260509145403 | 20 | 341 | 6.4 | 12.9 | 0.00 | 0.00 | 0.00 | 46 | 1015.9 |
| 20260509144503 | 20 | 336 | 4.8 | 12.9 | 0.00 | 0.00 | 0.00 | 47 | 1016.0 |
| 20260509143603 | 20 | 344 | 6.4 | 9.7 | 0.00 | 0.00 | 0.00 | 48 | 1016.1 |
| 20260509142703 | 20 | 351 | 8.0 | 14.5 | 0.00 | 0.00 | 0.00 | 46 | 1016.1 |
| 20260509142018 | 20 | 360 | 8.0 | 14.5 | 0.00 | 0.00 | 0.00 | 46 | 1016.1 |
| 20260509140903 | 20 | 351 | 6.4 | 12.9 | 0.00 | 0.00 | 0.00 | 48 | 1016.2 |
| 20260509140003 | 20 | 346 | 6.4 | 12.9 | 0.00 | 0.00 | 0.00 | 47 | 1016.2 |
| 20260509135403 | 19 | 347 | 8.0 | 12.9 | 0.00 | 0.00 | 0.00 | 45 | 1016.3 |
| 20260509134503 | 19 | 353 | 6.4 | 16.1 | 0.00 | 0.00 | 0.00 | 46 | 1016.4 |
| 20260509133603 | 19 | 3 | 8.0 | 14.5 | 0.00 | 0.00 | 0.00 | 46 | 1016.4 |
| 20260509132703 | 19 | 3 | 9.7 | 16.1 | 0.00 | 0.00 | 0.00 | 45 | 1016.5 |
| 20260509132018 | 19 | 357 | 9.7 | 14.5 | 0.00 | 0.00 | 0.00 | 46 | 1016.5 |
| 20260509131117 | 19 | 5 | 8.0 | 12.9 | 0.00 | 0.00 | 0.00 | 46 | 1016.7 |
| 20260509130004 | 19 | 357 | 8.0 | 12.9 | 0.00 | 0.00 | 0.00 | 46 | 1016.8 |
| 20260509125403 | 19 | 3 | 6.4 | 12.9 | 0.00 | 0.00 | 0.00 | 47 | 1016.9 |
| 20260509124503 | 19 | 351 | 6.4 | 12.9 | 0.00 | 0.00 | 0.00 | 46 | 1017.1 |
| 20260509123816 | 19 | 1 | 6.4 | 14.5 | 0.00 | 0.00 | 0.00 | 47 | 1017.1 |
| 20260509122918 | 19 | 5 | 6.4 | 14.5 | 0.00 | 0.00 | 0.00 | 48 | 1017.1 |
| 20260509121803 | 18 | 17 | 6.4 | 14.5 | 0.00 | 0.00 | 0.00 | 48 | 1017.2 |
| 20260509120903 | 18 | 19 | 6.4 | 14.5 | 0.00 | 0.00 | 0.00 | 48 | 1017.3 |
| 20260509120003 | 18 | 35 | 6.4 | 14.5 | 0.00 | 0.00 | 0.00 | 47 | 1017.4 |
| 20260509115403 | 18 | 30 | 4.8 | 12.9 | 0.00 | 0.00 | 0.00 | 47 | 1017.4 |
| 20260509114503 | 19 | 70 | 4.8 | 14.5 | 0.00 | 0.00 | 0.00 | 50 | 1017.6 |
| 20260509113603 | 18 | 42 | 6.4 | 12.9 | 0.00 | 0.00 | 0.00 | 50 | 1017.6 |
| 20260509112917 | 18 | 74 | 6.4 | 16.1 | 0.00 | 0.00 | 0.00 | 48 | 1017.7 |
| 20260509111803 | 18 | 82 | 4.8 | 11.3 | 0.00 | 0.00 | 0.00 | 49 | 1017.8 |
| 20260509111118 | 18 | 76 | 6.4 | 16.1 | 0.00 | 0.00 | 0.00 | 52 | 1017.8 |
| 20260509110003 | 18 | 67 | 4.8 | 14.5 | 0.00 | 0.00 | 0.00 | 51 | 1017.9 |
| 20260509105403 | 18 | 63 | 4.8 | 12.9 | 0.00 | 0.00 | 0.00 | 52 | 1018.0 |
| 20260509104503 | 18 | 74 | 6.4 | 14.5 | 0.00 | 0.00 | 0.00 | 51 | 1018.1 |
| 20260509103603 | 18 | 70 | 6.4 | 14.5 | 0.00 | 0.00 | 0.00 | 52 | 1018.1 |
| 20260509102703 | 18 | 82 | 6.4 | 16.1 | 0.00 | 0.00 | 0.00 | 54 | 1018.1 |
| 20260509101803 | 18 | 73 | 6.4 | 16.1 | 0.00 | 0.00 | 0.00 | 54 | 1018.3 |
| 20260509100903 | 17 | 61 | 6.4 | 11.3 | 0.00 | 0.00 | 0.00 | 56 | 1018.3 |
| 20260509100004 | 17 | 32 | 6.4 | 14.5 | 0.00 | 0.00 | 0.00 | 57 | 1018.4 |
| 20260509095403 | 17 | 37 | 6.4 | 14.5 | 0.00 | 0.00 | 0.00 | 59 | 1018.3 |
| 20260509094503 | 17 | 54 | 6.4 | 12.9 | 0.00 | 0.00 | 0.00 | 61 | 1018.3 |
| 20260509093818 | 17 | 24 | 6.4 | 12.9 | 0.00 | 0.00 | 0.00 | 63 | 1018.3 |
| 20260509092703 | 16 | 27 | 8.0 | 14.5 | 0.00 | 0.00 | 0.00 | 65 | 1018.4 |
| 20260509091803 | 16 | 23 | 8.0 | 14.5 | 0.00 | 0.00 | 0.00 | 66 | 1018.4 |